TimeEDT,TemperatureF,Dew PointF,Humidity,Sea Level PressureIn,VisibilityMPH,Wind Direction,Wind SpeedMPH,Gust SpeedMPH,PrecipitationIn,Events,Conditions,WindDirDegrees,DateUTC
12:53 AM,69.1,64.0,84,30.04,10.0,North,10.4,-,N/A,,Overcast,360,2013-03-13 04:53:00
1:51 AM,68.0,64.4,88,30.04,10.0,North,10.4,-,N/A,,Overcast,350,2013-03-13 05:51:00
1:53 AM,68.0,64.9,90,30.05,10.0,North,10.4,-,N/A,,Overcast,350,2013-03-13 05:53:00
2:15 AM,69.8,64.4,83,30.03,10.0,North,12.7,-,N/A,,Overcast,350,2013-03-13 06:15:00
2:30 AM,69.8,64.4,83,30.03,10.0,North,11.5,-,N/A,,Overcast,350,2013-03-13 06:30:00
2:53 AM,69.8,64.4,83,30.02,10.0,North,10.4,-,N/A,,Overcast,350,2013-03-13 06:53:00
3:03 AM,69.8,62.6,78,30.02,10.0,North,12.7,-,N/A,,Overcast,360,2013-03-13 07:03:00
3:16 AM,69.8,62.6,78,30.02,10.0,North,12.7,-,N/A,,Overcast,360,2013-03-13 07:16:00
3:29 AM,68.0,62.6,83,30.02,10.0,North,10.4,19.6,N/A,,Overcast,350,2013-03-13 07:29:00
3:53 AM,68.0,62.1,81,30.02,10.0,North,13.8,21.9,N/A,,Overcast,350,2013-03-13 07:53:00
4:53 AM,68.0,57.9,70,30.02,10.0,North,13.8,-,N/A,,Overcast,350,2013-03-13 08:53:00
5:07 AM,68.0,57.2,68,30.02,10.0,North,13.8,20.7,N/A,,Overcast,350,2013-03-13 09:07:00
5:18 AM,68.0,57.2,68,30.02,10.0,North,15.0,20.7,N/A,,Overcast,360,2013-03-13 09:18:00
5:53 AM,68.0,57.0,68,30.03,10.0,North,13.8,20.7,N/A,,Overcast,350,2013-03-13 09:53:00
6:28 AM,66.2,55.4,68,30.04,10.0,North,15.0,21.9,N/A,,Overcast,360,2013-03-13 10:28:00
6:53 AM,66.9,55.9,68,30.06,10.0,North,13.8,19.6,N/A,,Overcast,10,2013-03-13 10:53:00
7:53 AM,66.0,57.0,73,30.07,10.0,North,15.0,23.0,N/A,,Overcast,10,2013-03-13 11:53:00
8:53 AM,66.0,57.0,73,30.09,10.0,North,16.1,24.2,N/A,,Partly Cloudy,360,2013-03-13 12:53:00
9:53 AM,66.9,55.9,68,30.13,10.0,North,12.7,25.3,N/A,,Clear,10,2013-03-13 13:53:00
10:53 AM,68.0,54.0,61,30.13,10.0,North,17.3,25.3,N/A,,Clear,10,2013-03-13 14:53:00
11:53 AM,68.0,52.0,56,30.15,10.0,North,17.3,24.2,N/A,,Clear,360,2013-03-13 15:53:00
12:53 PM,69.1,51.1,53,30.14,10.0,North,16.1,25.3,N/A,,Clear,10,2013-03-13 16:53:00
1:53 PM,69.1,50.0,51,30.12,10.0,North,17.3,23.0,N/A,,Clear,360,2013-03-13 17:53:00
2:53 PM,71.1,51.1,49,30.10,10.0,North,15.0,24.2,N/A,,Clear,360,2013-03-13 18:53:00
3:53 PM,71.1,52.0,51,30.08,10.0,North,10.4,20.7,N/A,,Clear,360,2013-03-13 19:53:00
4:53 PM,70.0,53.1,55,30.08,10.0,North,16.1,21.9,N/A,,Clear,350,2013-03-13 20:53:00
5:53 PM,70.0,55.0,59,30.08,10.0,North,16.1,24.2,N/A,,Clear,350,2013-03-13 21:53:00
6:53 PM,69.1,55.0,61,30.09,10.0,North,13.8,20.7,N/A,,Clear,350,2013-03-13 22:53:00
7:53 PM,69.1,55.9,63,30.10,10.0,North,16.1,20.7,N/A,,Clear,350,2013-03-13 23:53:00
8:53 PM,68.0,57.0,68,30.12,10.0,North,12.7,-,N/A,,Clear,350,2013-03-14 00:53:00
9:53 PM,69.1,57.9,68,30.13,10.0,North,12.7,20.7,N/A,,Clear,350,2013-03-14 01:53:00
10:53 PM,69.1,55.9,63,30.15,10.0,NNW,12.7,19.6,N/A,,Clear,340,2013-03-14 02:53:00
11:53 PM,68.0,55.9,65,30.16,10.0,North,16.1,24.2,N/A,,Clear,350,2013-03-14 03:53:00